Location: ????????
(48.4751°N, 37.6926°E)
Time: 20:06:21
(UTC+00:00)

Cosmos 2227 - Pass Details

Date: 20 January 2021
Orbit: 832 x 863 km, 71.0° (Epoch: 02 March)

Event Time Altitude Azimuth Distance (km) Brightness Sun altitude
Rises 14:32:45 0° 193° (SSW) 3,371 7.9 -4.3°
Reaches altitude 10° 14:35:12 10° 190° (S) 2,444 7.1 -4.7°
Maximum altitude 14:40:42 59° 112° (ESE) 971 4.4 -5.5°
Drops below altitude 10° 14:46:16 10° 34° (NE) 2,480 6.1 -6.3°
Enters shadow 14:48:24 - 31° (NNE) 3,288 6.8 -6.6°
